1498766400.54,12076,16.19,73084.5,4.05,-17.69,-21.23,0,*75
1498766401.79,12077,16.19,73086.5,4.05,-18.21,-21.67,0,*77
1498766403.05,12078,16.19,73080.3,4.05,-18.49,-21.87,0,*78
1498766404.34,12079,16.25,73086.5,4.05,-18.31,-21.67,0,*78
1498766405.61,12080,16.19,73082.8,4.05,-17.55,-20.79,0,*7D
1498766406.87,12081,16.19,73066.0,4.05,-17.25,-20.63,0,*70
1498766408.13,12082,16.25,73074.3,4.05,-17.25,-20.63,0,*73
1498766409.39,12083,16.19,73054.3,4.07,-17.11,-20.49,0,*7F
1498766410.62,12084,16.19,73070.0,4.07,-16.83,-20.19,0,*77
1498766411.84,12085,16.25,73072.0,4.07,-17.69,-20.99,0,*7B
1498766413.06,12086,16.19,73070.0,4.07,-17.31,-20.79,0,*7B
1498766414.32,12087,16.25,73050.3,4.09,-16.97,-20.53,0,*71
1498766415.58,12088,16.25,73048.5,4.09,-17.07,-20.39,0,*7A
1498766416.81,12089,16.25,73032.5,4.09,-16.93,-20.39,0,*77
1498766418.04,12090,16.19,73044.8,4.11,-16.79,-20.15,0,*7C
1498766419.24,12091,16.19,73058.8,4.11,-16.93,-20.25,0,*7A
1498766420.52,12092,16.25,73072.0,4.13,-17.03,-20.53,0,*72
1498766421.78,12093,16.19,73070.8,4.17,-17.17,-20.63,0,*71
1498766423.01,12094,16.25,73062.3,4.13,-17.49,-20.73,0,*78
1498766424.3,12095,16.19,73060.5,4.17,-17.45,-20.83,0,*7E
1498766425.55,12096,16.25,73068.0,4.17,-17.11,-20.63,0,*72
1498766426.81,12097,16.25,73072.5,4.17,-17.03,-20.59,0,*79
1498766428.09,12098,16.25,73098.0,4.13,-17.03,-20.49,0,*73
1498766429.33,12099,16.19,73068.0,4.19,-17.17,-20.63,0,*75
1498766430.55,12100,16.19,73066.0,4.19,-17.31,-20.83,0,*7E
1498766431.77,12101,16.25,73090.8,4.19,-17.55,-20.93,0,*7C
1498766433.01,12102,16.19,73108.0,4.21,-16.83,-20.39,0,*7E
1498766434.24,12103,16.19,73066.0,4.19,-17.03,-20.43,0,*70
1498766435.44,12104,16.25,73064.0,4.19,-16.89,-20.43,0,*74
1498766436.7,12105,16.19,73028.0,4.21,-17.73,-21.23,0,*7D
1498766437.92,12106,16.19,73050.3,4.21,-17.69,-21.17,0,*72
1498766439.18,12107,16.25,73058.5,4.23,-18.31,-21.67,0,*74
1498766440.43,12108,16.19,73068.8,4.19,-18.35,-21.87,0,*78
1498766441.68,12109,16.25,73080.0,4.21,-18.25,-21.67,0,*7D
1498766442.88,12110,16.19,73076.0,4.19,-18.07,-21.63,0,*7A
1498766444.1,12111,16.19,73080.0,4.21,-17.69,-21.09,0,*7B
1498766445.32,12112,16.19,73086.0,4.19,-17.59,-21.09,0,*70
1498766446.52,12113,16.19,73076.5,4.19,-17.87,-21.39,0,*71
1498766447.77,12114,16.19,73076.0,4.21,-17.97,-21.47,0,*75
1498766449.0,12115,16.19,73080.0,4.19,-18.17,-21.67,0,*7A
1498766450.2,12116,16.19,73090.0,4.19,-17.87,-21.39,0,*74
1498766451.44,12117,16.19,73098.8,4.19,-18.01,-21.57,0,*7C
1498766452.67,12118,16.19,73100.3,4.19,-18.35,-21.77,0,*76
1498766453.92,12119,16.19,73102.8,4.19,-18.35,-21.87,0,*78
1498766455.15,12120,16.19,73106.8,4.17,-18.17,-21.77,0,*73
1498766456.43,12121,16.19,73110.8,4.17,-18.35,-21.87,0,*7D
1498766457.69,12122,16.19,73110.0,4.17,-18.31,-21.77,0,*75
1498766458.91,12123,16.25,73108.8,4.13,-18.49,-22.07,0,*7B
1498766460.18,12124,16.19,73110.0,4.13,-18.55,-21.97,0,*7B
1498766461.47,12125,16.25,73120.5,4.17,-18.31,-21.87,0,*7D
1498766462.72,12126,16.19,73116.0,4.13,-18.21,-21.83,0,*7F
1498766463.94,12127,16.19,73112.3,4.13,-17.83,-21.43,0,*75
1498766465.19,12128,16.25,73112.5,4.13,-17.79,-21.47,0,*7B
1498766466.46,12129,16.19,73104.8,4.13,-17.63,-21.33,0,*72
1498766467.74,12130,16.19,73098.8,4.13,-17.45,-20.99,0,*7F
1498766468.99,12131,16.25,73102.0,4.13,-17.59,-21.17,0,*74
1498766470.22,12132,16.19,73102.0,4.11,-17.83,-21.53,0,*72
1498766471.45,12133,16.25,73100.0,4.11,-17.41,-21.09,0,*72
1498766472.7,12134,16.19,73098.5,4.13,-17.59,-21.17,0,*71
1498766473.92,12135,16.19,73100.5,4.13,-17.73,-21.47,0,*7D
1498766475.15,12136,16.19,73096.8,4.13,-17.83,-21.63,0,*77
1498766476.42,12137,16.19,73100.5,4.17,-17.79,-21.53,0,*74
1498766477.66,12138,16.25,73110.3,4.13,-17.93,-21.73,0,*79
1498766478.92,12139,16.19,73104.5,4.11,-18.01,-21.83,0,*71
1498766480.14,12140,16.19,73104.0,4.09,-17.87,-21.63,0,*79
1498766481.39,12141,16.19,73108.3,4.11,-17.79,-21.53,0,*73
1498766482.63,12142,16.19,73106.0,4.11,-17.63,-21.33,0,*7D
1498766483.86,12143,16.19,73084.3,4.11,-17.41,-21.09,0,*75
1498766485.11,12144,16.19,73082.5,4.11,-17.55,-21.33,0,*7E
1498766486.35,12145,16.25,73084.5,4.11,-17.21,-20.89,0,*7C
1498766487.6,12146,16.25,73084.3,4.13,-17.21,-20.93,0,*76
1498766488.81,12147,16.25,73076.8,4.11,-16.97,-20.73,0,*77
1498766490.06,12148,16.19,73078.8,4.11,-17.07,-20.79,0,*7A
1498766491.33,12149,16.19,73074.3,4.13,-17.21,-20.83,0,*78
1498766492.61,12150,16.19,73062.3,4.13,-17.21,-20.83,0,*70
1498766493.87,12151,16.19,73068.3,4.13,-17.21,-20.89,0,*7B
1498766495.16,12152,16.19,73084.3,4.13,-17.17,-20.83,0,*77
1498766496.39,12153,16.19,73078.8,4.17,-16.83,-20.63,0,*70
1498766497.63,12154,16.19,73080.5,4.13,-16.75,-20.39,0,*75
1498766498.89,12155,16.19,73078.3,4.17,-17.17,-20.93,0,*75
1498766500.15,12156,16.19,73072.0,4.17,-17.17,-20.93,0,*76
1498766501.38,12157,16.25,73074.5,4.19,-17.03,-20.63,0,*73
1498766502.61,12158,16.19,73062.5,4.19,-16.79,-20.49,0,*78
1498766503.84,12159,16.19,73066.8,4.19,-16.69,-20.43,0,*72
1498766505.07,12160,16.19,73070.8,4.21,-16.79,-20.63,0,*70
1498766506.26,12161,16.25,73080.8,4.19,-17.31,-21.09,0,*7A
1498766507.49,12162,16.19,73074.8,4.19,-17.41,-21.13,0,*75
1498766508.74,12163,16.19,73078.0,4.21,-17.35,-21.03,0,*7D
1498766509.99,12164,16.25,73078.0,4.23,-17.07,-20.79,0,*75
1498766511.22,12165,16.25,73072.5,4.21,-16.79,-20.63,0,*75
1498766512.47,12166,16.19,73062.5,4.19,-17.03,-20.79,0,*7A
1498766513.72,12167,16.19,73078.3,4.21,-17.21,-20.93,0,*74
1498766515.0,12168,16.19,73072.5,4.21,-17.41,-21.33,0,*76
1498766516.29,12169,16.19,73082.3,4.21,-17.41,-21.23,0,*76
1498766517.57,12170,16.19,73074.8,4.21,-17.41,-21.23,0,*7E
1498766518.83,12171,16.19,73076.5,4.21,-17.41,-21.39,0,*74
1498766520.11,12172,16.19,73072.3,4.21,-17.41,-21.33,0,*7D
1498766521.36,12173,16.19,73054.5,4.21,-17.11,-20.93,0,*72
1498766522.56,12174,16.19,73064.0,4.23,-16.93,-20.89,0,*77
1498766523.79,12175,16.25,73070.5,4.23,-17.07,-20.93,0,*71
1498766525.02,12176,16.19,73074.8,4.23,-17.25,-21.17,0,*7F
1498766526.29,12177,16.19,73070.5,4.25,-17.17,-21.03,0,*7C
1498766527.57,12178,16.19,73074.5,4.25,-17.17,-21.03,0,*73
1498766528.79,12179,16.19,73052.0,4.23,-17.11,-21.09,0,*78
1498766530.04,12180,16.19,73058.3,4.25,-17.17,-21.13,0,*75
1498766531.29,12181,16.19,73048.8,4.23,-17.21,-21.23,0,*74
1498766532.54,12182,16.19,73052.0,4.25,-17.31,-21.27,0,*74
1498766533.77,12183,16.19,73054.0,4.23,-17.41,-21.47,0,*72
1498766535.01,12184,16.19,73068.5,4.23,-17.25,-21.33,0,*74
1498766536.29,12185,16.19,73062.3,4.25,-17.03,-20.99,0,*76
1498766537.53,12186,16.19,73066.5,4.25,-17.63,-21.63,0,*77
1498766538.77,12187,16.19,73086.3,4.25,-17.49,-21.57,0,*79
1498766539.96,12188,16.19,73068.5,4.27,-17.49,-21.63,0,*73
1498766541.21,12189,16.19,73068.8,4.27,-17.63,-21.67,0,*7E
1498766542.45,12190,16.19,73062.3,4.25,-17.79,-21.93,0,*74
1498766543.67,12191,16.19,73060.5,4.25,-17.83,-22.07,0,*7E
1498766544.9,12192,16.19,73066.8,4.23,-17.97,-22.03,0,*7A
1498766546.13,12193,16.19,73074.0,4.23,-17.97,-22.03,0,*7B
1498766547.35,12194,16.19,73076.5,4.25,-17.69,-21.77,0,*7B
1498766548.59,12195,16.19,73086.3,4.23,-17.63,-21.83,0,*7D
1498766549.84,12196,16.19,73076.3,4.21,-17.97,-22.11,0,*7F
1498766551.07,12197,16.19,73078.0,4.21,-17.87,-22.03,0,*7C
1498766552.32,12198,16.19,73084.8,4.21,-18.01,-22.11,0,*71
1498766553.52,12199,16.19,73076.8,4.23,-17.83,-22.11,0,*77
1498766554.74,12200,16.19,73070.3,4.21,-17.83,-22.03,0,*75
1498766555.94,12201,16.19,73072.8,4.23,-17.73,-22.11,0,*7A
1498766557.17,12202,16.19,73074.5,4.19,-18.07,-22.31,0,*7E
1498766558.42,12203,16.19,73082.3,4.19,-17.93,-22.31,0,*7D
1498766559.64,12204,16.19,73084.5,4.19,-18.07,-22.31,0,*78
1498766560.89,12205,16.19,73086.0,4.21,-18.01,-22.27,0,*73
1498766562.09,12206,16.19,73092.5,4.19,-18.07,-22.37,0,*7C
1498766563.29,12207,16.19,73096.3,4.19,-18.17,-22.37,0,*7C
1498766564.51,12208,16.19,73096.8,4.19,-18.07,-22.31,0,*74
1498766565.77,12209,16.19,73088.8,4.17,-17.69,-21.87,0,*72
1498766567.05,12210,16.19,73080.5,4.17,-17.45,-21.67,0,*7A
1498766568.28,12211,16.19,73078.3,4.19,-17.45,-21.73,0,*70
1498766569.5,12212,16.19,73084.8,4.17,-17.73,-21.93,0,*76
1498766570.76,12213,16.19,73094.3,4.19,-17.41,-21.67,0,*73
1498766571.98,12214,16.19,73098.3,4.19,-17.79,-22.03,0,*7E
1498766573.21,12215,16.19,73094.0,4.13,-17.35,-21.47,0,*7E
1498766574.46,12216,16.19,73086.0,4.17,-17.17,-21.39,0,*70
1498766575.72,12217,16.19,73082.5,4.17,-16.83,-20.99,0,*76
1498766576.95,12218,16.19,73080.8,4.19,-16.79,-20.99,0,*72
1498766578.17,12219,16.19,73078.5,4.19,-16.79,-20.99,0,*73
1498766579.37,12220,16.19,73076.8,4.19,-16.79,-21.09,0,*71
1498766580.59,12221,16.19,73080.0,4.21,-17.49,-21.73,0,*74
1498766581.81,12222,16.19,73082.8,4.19,-17.59,-22.03,0,*79
1498766583.06,12223,16.19,73084.0,4.21,-17.25,-21.47,0,*7B
1498766584.26,12224,16.19,73084.3,4.19,-16.89,-20.93,0,*78
1498766585.48,12225,16.19,73090.3,4.19,-17.55,-21.73,0,*76
1498766586.7,12226,16.19,73084.0,4.19,-17.59,-21.93,0,*77
1498766587.9,12227,16.19,73082.5,4.19,-17.69,-21.93,0,*75
1498766589.13,12228,16.19,73084.3,4.19,-17.69,-21.87,0,*7F
1498766590.32,12229,16.19,73084.8,4.19,-17.73,-21.93,0,*70
1498766591.52,12230,16.19,73090.8,4.19,-17.69,-21.93,0,*73
1498766592.74,12231,16.19,73092.5,4.19,-17.59,-21.77,0,*7B
1498766593.97,12232,16.19,73080.5,4.19,-17.69,-21.87,0,*74
1498766595.25,12233,16.19,73082.5,4.17,-17.55,-21.87,0,*74
1498766596.53,12234,16.19,73084.0,4.17,-17.25,-21.67,0,*7A
1498766597.81,12235,16.19,73080.3,4.17,-17.55,-21.87,0,*72
1498766599.06,12236,16.19,73078.0,4.17,-17.31,-21.67,0,*7D
1498766600.29,12237,16.19,73072.8,4.13,-16.75,-21.13,0,*7A
1498766601.57,12238,16.19,73078.8,4.17,-17.25,-21.53,0,*71
1498766602.79,12239,16.19,73080.5,4.19,-17.41,-21.73,0,*7E
1498766604.02,12240,16.19,73086.5,4.17,-16.83,-21.13,0,*77
1498766605.24,12241,16.19,73084.5,4.17,-16.89,-21.13,0,*7C
1498766606.47,12242,16.19,73080.8,4.19,-16.79,-20.99,0,*7D
1498766607.7,12243,16.19,73080.3,4.19,-16.83,-21.23,0,*79
1498766608.96,12244,16.19,73074.5,4.21,-16.51,-20.89,0,*7B
1498766610.21,12245,16.19,73076.0,4.21,-15.89,-20.09,0,*74
1498766611.47,12246,16.19,73082.3,4.21,-16.23,-20.43,0,*7A
1498766612.73,12247,16.19,73090.0,4.21,-16.09,-20.39,0,*7E
1498766613.96,12248,16.19,73082.5,4.23,-16.51,-20.93,0,*7E
1498766615.21,12249,16.19,73084.0,4.25,-16.59,-20.99,0,*7B
1498766616.43,12250,16.19,73094.8,4.23,-16.93,-21.23,0,*73
1498766617.65,12251,16.19,73090.8,4.25,-16.79,-21.13,0,*73
1498766618.9,12252,16.19,73096.0,4.25,-16.79,-21.03,0,*71
1498766620.17,12253,16.19,73084.5,4.25,-17.03,-21.33,0,*7F
1498766621.42,12254,16.19,73090.3,4.25,-16.93,-21.27,0,*75
1498766622.61,12255,16.19,73094.3,4.27,-16.93,-21.17,0,*75
1498766623.84,12256,16.19,73090.8,4.27,-17.03,-21.47,0,*7B
1498766625.08,12257,16.19,73094.8,4.27,-17.17,-21.57,0,*7E
1498766626.3,12258,16.19,73082.8,4.27,-17.21,-21.63,0,*73
1498766627.5,12259,16.19,73068.8,4.29,-16.89,-21.13,0,*78
1498766628.7,12260,16.19,73070.3,4.27,-16.75,-21.13,0,*7F
1498766629.94,12261,16.19,73064.0,4.29,-16.83,-21.23,0,*7A
1498766631.16,12262,16.19,73088.0,4.27,-17.17,-21.43,0,*7D
1498766632.35,12263,16.19,73086.5,4.27,-16.89,-21.17,0,*7B
1498766633.58,12264,16.19,73078.3,4.29,-17.11,-21.43,0,*73
1498766634.78,12265,16.19,73080.5,4.27,-16.79,-21.17,0,*72
1498766636.01,12266,16.19,73086.5,4.29,-16.55,-20.83,0,*7D
1498766637.22,12267,16.19,73080.0,4.29,-16.41,-20.69,0,*7D
1498766638.47,12268,16.19,73080.0,4.27,-16.23,-20.53,0,*71
1498766639.73,12269,16.19,73064.5,4.29,-16.13,-20.49,0,*76
1498766640.99,12270,16.19,73056.8,4.29,-16.69,-21.23,0,*7E
1498766642.22,12271,16.19,73058.5,4.29,-16.69,-21.13,0,*7C
1498766643.45,12272,16.19,73070.3,4.29,-16.65,-21.13,0,*73
1498766644.68,12273,16.19,73084.5,4.29,-16.83,-21.27,0,*7D
1498766645.92,12274,16.19,73072.8,4.31,-16.79,-21.17,0,*75
1498766647.18,12275,16.19,73074.0,4.31,-15.89,-20.25,0,*78
1498766648.43,12276,16.19,73080.5,4.35,-15.53,-19.65,0,*76
1498766649.63,12277,16.19,73068.8,4.33,-15.75,-20.09,0,*75
1498766650.87,12278,16.19,73068.0,4.33,-16.17,-20.59,0,*78
1498766652.09,12279,16.19,73082.5,4.35,-15.99,-20.39,0,*7C
1498766653.35,12280,16.19,73084.3,4.39,-16.41,-20.99,0,*7A
1498766654.58,12281,16.19,73088.0,4.39,-16.59,-21.17,0,*75
1498766655.83,12282,16.19,73082.5,4.35,-16.03,-20.53,0,*74
1498766657.1,12283,16.19,73072.8,4.39,-15.39,-19.81,0,*76
1498766658.35,12284,16.19,73064.8,4.39,-15.89,-20.43,0,*7E
1498766659.61,12285,16.19,73060.0,4.39,-16.03,-20.53,0,*7F
1498766660.83,12286,16.19,73058.8,4.39,-15.71,-20.25,0,*7B
1498766662.11,12287,16.19,73056.0,4.39,-15.89,-20.53,0,*7C
1498766663.33,12288,16.19,73062.0,4.39,-15.99,-20.59,0,*78
1498766664.59,12289,16.19,73070.3,4.43,-16.23,-20.89,0,*7B
1498766665.81,12290,16.25,73074.8,4.41,-16.51,-21.09,0,*7D
1498766667.06,12291,16.19,73072.3,4.43,-16.65,-21.39,0,*7A
1498766668.28,12292,16.19,73078.0,4.41,-16.83,-21.57,0,*7B
1498766669.49,12293,16.19,73082.0,4.41,-16.55,-21.39,0,*79
1498766670.69,12294,16.19,73082.8,4.41,-16.55,-21.39,0,*7E
1498766671.89,12295,16.19,73088.5,4.41,-16.59,-21.43,0,*7E
1498766673.14,12296,16.19,73088.5,4.41,-17.11,-21.87,0,*78
1498766674.34,12297,16.19,73078.0,4.41,-16.75,-21.63,0,*70
1498766675.54,12298,16.19,73080.8,4.41,-16.55,-21.39,0,*72
1498766676.81,12299,16.19,73088.5,4.39,-16.31,-21.03,0,*77
1498766678.06,12300,16.19,73082.5,4.39,-15.71,-20.53,0,*75
1498766679.31,12301,16.19,73084.0,4.43,-16.09,-21.09,0,*7B
1498766680.53,12302,16.19,73088.0,4.41,-16.51,-21.43,0,*79
1498766681.78,12303,16.19,73082.8,4.43,-15.95,-20.79,0,*79
1498766683.0,12304,16.19,73064.0,4.41,-16.09,-21.09,0,*7C
1498766684.25,12305,16.19,73090.3,4.43,-15.95,-20.79,0,*7F
1498766685.48,12306,16.19,73062.8,4.41,-16.37,-21.27,0,*7F
1498766686.7,12307,16.19,73086.8,4.43,-16.45,-21.39,0,*76
1498766687.95,12308,16.19,73088.3,4.43,-16.79,-21.83,0,*77
1498766689.15,12309,16.19,73084.5,4.41,-16.97,-22.03,0,*7F
1498766690.4,12310,16.19,73078.3,4.39,-16.79,-21.83,0,*73
1498766691.63,12311,16.19,73070.0,4.41,-16.83,-21.87,0,*7C
1498766692.85,12312,16.19,73056.5,4.43,-16.83,-22.03,0,*72
1498766694.1,12313,16.19,73058.3,4.43,-16.79,-21.97,0,*78
1498766695.32,12314,16.19,73056.0,4.35,-16.89,-21.93,0,*75
1498766696.6,12315,16.19,73060.5,4.39,-16.65,-21.67,0,*71
1498766697.85,12316,16.19,73064.3,4.39,-16.75,-21.83,0,*79
1498766699.13,12317,16.19,73072.3,4.35,-16.65,-21.67,0,*7F
1498766700.36,12318,16.19,73068.5,4.35,-16.59,-21.63,0,*7B
1498766701.58,12319,16.19,73072.5,4.35,-16.79,-21.93,0,*77
1498766702.83,12320,16.19,73080.5,4.35,-16.75,-21.83,0,*70
1498766704.09,12321,16.19,73074.8,4.35,-16.59,-21.67,0,*75
1498766705.31,12322,16.19,73072.5,4.35,-16.75,-21.77,0,*79
1498766706.54,12323,16.19,73074.5,4.35,-16.89,-21.93,0,*71
1498766707.73,12324,16.19,73070.8,4.33,-16.93,-22.03,0,*71
1498766708.96,12325,16.19,73066.3,4.35,-16.89,-22.07,0,*79
1498766710.2,12326,16.19,73070.8,4.35,-16.79,-21.97,0,*7F
1498766711.43,12327,16.19,73068.8,4.35,-16.55,-21.77,0,*7E
1498766712.71,12328,16.19,73064.0,4.35,-16.65,-21.83,0,*79
1498766713.94,12329,16.19,73066.3,4.35,-16.75,-21.93,0,*78
1498766715.18,12330,16.19,73070.8,4.35,-16.31,-21.47,0,*79
1498766716.41,12331,16.19,73070.8,4.33,-16.09,-21.17,0,*70
1498766717.64,12332,16.19,73074.3,4.33,-16.45,-21.53,0,*7B
1498766718.9,12333,16.19,73074.8,4.33,-16.65,-21.83,0,*75
1498766720.16,12334,16.19,73078.3,4.31,-16.59,-21.83,0,*7F
1498766721.41,12335,16.19,73050.3,4.31,-16.37,-21.53,0,*7B
1498766722.63,12336,16.19,73060.8,4.33,-16.31,-21.47,0,*79
1498766723.89,12337,16.19,73066.8,4.31,-16.37,-21.53,0,*79
1498766725.14,12338,16.19,73074.0,4.31,-16.37,-21.57,0,*72
1498766726.42,12339,16.19,73064.5,4.31,-16.69,-21.97,0,*74
1498766727.67,12340,16.19,73074.0,4.31,-16.83,-21.97,0,*7E
1498766728.9,12341,16.19,73074.8,4.31,-16.83,-22.03,0,*71
1498766730.16,12342,16.19,73086.8,4.31,-16.79,-21.87,0,*78
1498766731.42,12343,16.19,73090.5,4.29,-16.69,-21.87,0,*71
1498766732.65,12344,16.19,73092.3,4.29,-16.41,-21.53,0,*75
1498766733.92,12345,16.19,73086.5,4.29,-16.09,-21.23,0,*7F
1498766735.19,12346,16.19,73084.0,4.31,-16.23,-21.53,0,*7A
1498766736.42,12347,16.19,73082.3,4.29,-16.51,-21.63,0,*74
1498766737.68,12348,16.19,73082.5,4.31,-16.17,-21.47,0,*76
1498766738.9,12349,16.19,73090.0,4.29,-16.27,-21.39,0,*74
1498766740.13,12350,16.19,73094.3,4.29,-16.23,-21.43,0,*75
1498766741.35,12351,16.19,73092.0,4.27,-16.41,-21.57,0,*7B
1498766742.62,12352,16.19,73092.5,4.31,-16.31,-21.53,0,*7C
1498766743.9,12353,16.19,73086.3,4.31,-16.17,-21.33,0,*7F
1498766745.12,12354,16.19,73082.5,4.27,-16.41,-21.57,0,*7E
1498766746.35,12355,16.19,73080.8,4.29,-16.27,-21.43,0,*74
1498766747.57,12356,16.19,73082.8,4.29,-16.55,-21.57,0,*77
1498766748.77,12357,16.19,73076.3,4.27,-16.55,-21.63,0,*7F
1498766750.02,12358,16.19,73078.5,4.29,-16.51,-21.53,0,*79
1498766751.22,12359,16.19,73076.0,4.27,-16.41,-21.39,0,*7B
1498766752.43,12360,16.19,73074.5,4.29,-16.55,-21.63,0,*75
1498766753.65,12361,16.19,73074.0,4.27,-16.55,-21.67,0,*7E
1498766754.88,12362,16.19,73074.0,4.27,-16.59,-21.67,0,*71
1498766756.08,12363,16.19,73074.0,4.27,-16.59,-21.77,0,*71
1498766757.27,12364,16.19,73074.0,4.27,-16.75,-21.77,0,*78
1498766758.52,12365,16.19,73072.0,4.27,-16.69,-21.67,0,*75
1498766759.72,12366,16.19,73076.8,4.27,-16.75,-21.77,0,*7A
1498766760.94,12367,16.19,73074.8,4.25,-16.55,-21.63,0,*7E
1498766762.19,12368,16.19,73078.3,4.25,-16.41,-21.57,0,*73
1498766763.41,12369,16.19,73080.3,4.25,-16.55,-21.63,0,*70
1498766764.67,12370,16.19,73082.3,4.23,-16.65,-21.67,0,*79
1498766765.91,12371,16.19,73086.3,4.25,-16.45,-21.57,0,*7F
1498766767.15,12372,16.19,73084.0,4.23,-16.51,-21.53,0,*7B
1498766768.38,12373,16.19,73086.3,4.23,-16.45,-21.53,0,*7F
1498766769.58,12374,16.19,73086.3,4.23,-16.37,-21.47,0,*78
1498766770.8,12375,16.19,73080.8,4.23,-16.23,-21.17,0,*79
1498766772.05,12376,16.19,73084.3,4.25,-16.03,-20.99,0,*79
1498766773.31,12377,16.19,73086.8,4.25,-15.85,-20.89,0,*74
1498766774.5,12378,16.19,73094.8,4.23,-16.03,-21.09,0,*79
1498766775.75,12379,16.19,73092.3,4.23,-16.09,-21.03,0,*78
1498766776.98,12380,16.19,73088.3,4.23,-16.09,-21.09,0,*74
1498766778.2,12381,16.19,73092.3,4.23,-16.03,-21.03,0,*75
1498766779.43,12382,16.19,73098.5,4.23,-16.09,-21.17,0,*79
1498766780.63,12383,16.19,73084.3,4.23,-15.95,-20.93,0,*73
1498766781.89,12384,16.19,73082.8,4.25,-15.39,-20.39,0,*74
1498766783.09,12385,16.19,73078.8,4.23,-15.29,-20.39,0,*72
1498766784.37,12386,16.19,73076.8,4.25,-15.43,-20.53,0,*77
1498766785.59,12387,16.19,73070.3,4.25,-15.71,-20.73,0,*75
1498766786.85,12388,16.19,73070.0,4.25,-15.85,-20.89,0,*74
1498766788.1,12389,16.19,73064.5,4.25,-15.75,-21.03,0,*79
1498766789.37,12390,16.19,73066.8,4.25,-15.85,-20.99,0,*7C
1498766790.57,12391,16.19,73066.5,4.23,-15.95,-20.93,0,*70
1498766791.82,12392,16.19,73074.3,4.25,-15.75,-20.83,0,*7A
1498766793.05,12393,16.19,73078.8,4.23,-15.95,-21.03,0,*7A
1498766794.32,12394,16.19,73068.5,4.25,-15.89,-21.03,0,*76
1498766795.55,12395,16.19,73076.5,4.23,-15.81,-20.89,0,*7A
1498766796.8,12396,16.19,73076.0,4.25,-15.15,-20.35,0,*75
1498766798.01,12397,16.19,73068.8,4.23,-15.21,-20.29,0,*78
1498766799.24,12398,16.19,73046.0,4.25,-15.25,-20.25,0,*79
1498766800.48,12399,16.19,73034.5,4.25,-15.01,-20.09,0,*70
1498766801.7,12400,16.19,73056.5,4.27,-15.29,-20.35,0,*70
1498766802.91,12401,16.19,73054.3,4.27,-15.01,-20.09,0,*74
1498766804.16,12402,16.19,73052.5,4.25,-15.29,-20.35,0,*70
1498766805.38,12403,16.19,73076.5,4.27,-15.11,-20.19,0,*76
1498766806.6,12404,16.19,73088.5,4.27,-15.43,-20.59,0,*72
1498766807.85,12405,16.19,73090.8,4.27,-15.35,-20.53,0,*78
1498766809.05,12406,16.19,73084.5,4.27,-14.89,-19.95,0,*7D
1498766810.27,12407,16.19,73078.8,4.27,-14.83,-19.91,0,*72
1498766811.51,12408,16.19,73058.5,4.27,-14.79,-19.81,0,*79
1498766812.73,12409,16.19,73056.3,4.27,-15.25,-20.35,0,*75
1498766813.92,12410,16.19,73050.5,4.27,-14.89,-19.91,0,*7E
1498766815.18,12411,16.19,73064.3,4.29,-14.51,-19.41,0,*79
1498766816.43,12412,16.19,73056.5,4.29,-14.79,-19.85,0,*78
1498766817.65,12413,16.19,73056.0,4.27,-14.89,-19.81,0,*7C
1498766818.91,12414,16.19,73064.8,4.29,-14.79,-19.57,0,*71
1498766820.11,12415,16.19,73044.8,4.29,-14.11,-18.99,0,*7D
1498766821.37,12416,16.19,73044.5,4.31,-13.87,-18.73,0,*7B
1498766822.57,12417,16.19,73056.8,4.33,-13.15,-17.87,0,*77
1498766823.78,12418,16.19,73004.5,4.33,-13.19,-18.11,0,*74
1498766825.0,12419,16.19,73024.3,4.35,-14.11,-19.03,0,*7E
1498766826.27,12420,16.19,73066.5,4.35,-14.75,-19.81,0,*7C
1498766827.49,12421,16.19,73060.8,4.39,-14.89,-19.91,0,*73
1498766828.74,12422,16.19,73052.3,4.39,-15.01,-19.95,0,*75
1498766829.96,12423,16.19,73078.8,4.35,-15.25,-20.25,0,*7F
1498766831.24,12424,16.19,73082.3,4.35,-14.75,-19.65,0,*72
1498766832.51,12425,16.19,73064.3,4.35,-14.55,-19.31,0,*70
1498766833.79,12426,16.19,73082.0,4.35,-14.83,-19.65,0,*79
1498766835.07,12427,16.19,73080.0,4.39,-14.83,-19.65,0,*74
1498766836.29,12428,16.19,73088.8,4.35,-15.25,-20.09,0,*7A
1498766837.52,12429,16.19,73092.3,4.35,-15.25,-20.05,0,*77
1498766838.76,12430,16.19,73086.5,4.35,-15.01,-19.91,0,*7E
1498766839.98,12431,16.19,73084.0,4.35,-15.11,-19.95,0,*7A
1498766841.24,12432,16.19,73072.5,4.35,-15.01,-19.81,0,*7D
1498766842.48,12433,16.19,73084.5,4.35,-14.97,-19.91,0,*73
1498766843.71,12434,16.19,73098.8,4.35,-15.15,-20.05,0,*78
1498766844.98,12435,16.19,73102.0,4.35,-15.43,-20.35,0,*79
1498766846.23,12436,16.19,73096.5,4.35,-15.39,-20.25,0,*76
1498766847.48,12437,16.19,73082.3,4.35,-15.29,-20.19,0,*79
1498766848.72,12438,16.19,73090.3,4.33,-15.57,-20.39,0,*7B
1498766849.92,12439,16.19,73106.8,4.33,-15.49,-20.29,0,*74
1498766851.15,12440,16.19,73104.3,4.33,-15.43,-20.39,0,*71
1498766852.39,12441,16.19,73094.0,4.33,-15.43,-20.25,0,*7D
1498766853.61,12442,16.19,73090.8,4.33,-15.21,-20.09,0,*74
1498766854.83,12443,16.19,73092.8,4.33,-14.93,-19.71,0,*78
1498766856.05,12444,16.19,73090.8,4.33,-14.79,-19.47,0,*7E
1498766857.28,12445,16.19,73098.0,4.35,-15.15,-19.91,0,*79
1498766858.52,12446,16.19,73102.5,4.33,-15.35,-20.15,0,*78
1498766859.78,12447,16.19,73098.8,4.33,-14.43,-18.93,0,*7C
1498766861.02,12448,16.19,73096.0,4.35,-14.97,-19.75,0,*75
1498766862.22,12449,16.19,73088.3,4.33,-15.07,-19.71,0,*7E
1498766863.42,12450,16.19,73084.5,4.33,-14.89,-19.71,0,*71
1498766864.67,12451,16.19,73078.5,4.31,-15.35,-20.09,0,*71
1498766865.87,12452,16.19,73082.3,4.33,-15.15,-19.99,0,*71
1498766867.1,12453,16.19,73080.3,4.33,-15.35,-20.25,0,*7F
1498766868.34,12454,16.19,73080.3,4.33,-15.43,-20.25,0,*79
1498766869.59,12455,16.19,73082.8,4.31,-15.35,-20.25,0,*7B
1498766870.85,12456,16.19,73088.3,4.31,-15.29,-20.15,0,*76
1498766872.1,12457,16.19,73090.0,4.31,-15.35,-20.09,0,*77
1498766873.3,12458,16.19,73090.0,4.33,-14.89,-19.71,0,*79
1498766874.53,12459,16.19,73092.8,4.31,-15.15,-19.95,0,*74
1498766875.78,12460,16.19,73098.5,4.31,-15.07,-19.85,0,*7C
1498766877.03,12461,16.19,73094.8,4.31,-14.75,-19.51,0,*70
1498766878.31,12462,16.19,73092.3,4.31,-14.75,-19.65,0,*74
1498766879.54,12463,16.19,73092.3,4.33,-14.89,-19.65,0,*74
1498766880.81,12464,16.19,73098.0,4.31,-15.01,-19.81,0,*7A
1498766882.06,12465,16.19,73094.0,4.31,-15.15,-19.81,0,*7E
1498766883.29,12466,16.19,73102.5,4.31,-15.29,-19.99,0,*7B
1498766884.55,12467,16.19,73100.0,4.31,-15.43,-20.25,0,*7B
1498766885.8,12468,16.19,73104.8,4.31,-15.43,-20.29,0,*78
1498766887.04,12469,16.19,73108.0,4.31,-15.49,-20.39,0,*72
1498766888.29,12470,16.19,73102.3,4.31,-15.29,-20.15,0,*72
1498766889.55,12471,16.19,73100.3,4.29,-15.39,-20.19,0,*77
1498766890.77,12472,16.19,73104.5,4.27,-15.53,-20.19,0,*76
1498766892.02,12473,16.19,73096.5,4.29,-15.35,-20.15,0,*75
1498766893.27,12474,16.19,73098.3,4.31,-15.57,-20.25,0,*7C
1498766894.52,12475,16.19,73100.0,4.31,-15.57,-20.29,0,*71
1498766895.75,12476,16.19,73106.8,4.27,-15.57,-20.39,0,*74
1498766896.97,12477,16.19,73096.0,4.27,-15.39,-20.29,0,*7C
1498766898.17,12478,16.19,73094.0,4.27,-15.15,-19.95,0,*70
1498766899.36,12479,16.19,73100.0,4.27,-15.29,-20.09,0,*71
1498766900.64,12480,16.19,73100.0,4.31,-15.43,-20.15,0,*71
1498766901.86,12481,16.19,73098.5,4.27,-15.43,-20.25,0,*74
1498766903.08,12482,16.19,73102.3,4.27,-15.67,-20.35,0,*70